Weather History for Russellville, AR

Change the Weather History Date:

Tuesday, November 20, 2012

  Actual Average (KHOT) Record (KHOT)
Temperature  
Mean Temperature 55 °F -  
Max Temperature 73 °F 63 °F 78 °F (2011)
Min Temperature 37 °F 42 °F 25 °F (1980)
Degree Days  
Heating Degree Days 10    
Growing Degree Days 5 (Base 50)    
Moisture  
Dew Point 43 °F    
Average Humidity 86    
Maximum Humidity 100    
Minimum Humidity 44    
Precipitation  
Precipitation 0.00 in - - ()
Sea Level Pressure  
Sea Level Pressure 30.16 in    
Wind  
Wind Speed 0 mph (WNW)    
Max Wind Speed 10 mph    
Max Gust Speed -    
Visibility 4 miles    
Events Fog    
Averages and records for this station are not official NWS values.
T = Trace of Precipitation, MM = Missing Value Source: NWS Daily Summary

Daily Weather History Graph

Daily Weather History Graph

Search for Another Location

Airport:

Trip Planner

Search our weather history database for the weather conditions in past years. The results will help you decide how hot, cold, wet, or windy it might be!

Date:

Astronomy

Nov. 20, 2012 Rise Set
Actual Time 6:52 AM CST 5:03 PM CST
Civil Twilight 6:25 AM CST 5:30 PM CST
Nautical Twilight 5:54 AM CST 6:01 PM CST
Astronomical Twilight 5:24 AM CST 6:31 PM CST
Moon 12:35 PM CST (11/20) No Moon Set
Length of Visible Light 11h 05m
Length of Day
10h 10m
First Quarter, 51% of the Moon is Illuminated
Nov 20
First Quarter
Nov 28
Full
Dec 6
Last Quarter
Dec 13
New
Dec 19
First Quarter

Hourly Weather History & Observations

Time (CST) Temp. Dew Point Humidity Pressure Visibility Wind Dir Wind Speed Gust Speed Precip Events Conditions
12:15 AM 42.8 °F 41.0 °F 93% 30.18 in 1.8 mi Calm Calm - N/A   Clear
12:26 AM 42.8 °F 41.0 °F 93% 30.18 in 1.8 mi Calm Calm - N/A   Scattered Clouds
12:38 AM 42.8 °F 41.0 °F 93% 30.17 in 2.0 mi Calm Calm - N/A   Partly Cloudy
12:48 AM 42.8 °F 41.0 °F 93% 30.17 in 1.5 mi Calm Calm - N/A   Partly Cloudy
12:53 AM 42.1 °F 41.0 °F 96% 30.16 in 1.8 mi Calm Calm - N/A   Clear
1:01 AM 42.8 °F 41.0 °F 93% 30.17 in 1.0 mi Calm Calm - N/A   Mist
1:08 AM 42.8 °F 39.2 °F 87% 30.16 in 0.5 mi Calm Calm - N/A Fog Fog
1:47 AM 41.0 °F 39.2 °F 93% 30.16 in 1.2 mi Calm Calm - N/A   Partly Cloudy
1:53 AM 41.0 °F 39.9 °F 96% 30.16 in 1.8 mi Calm Calm - N/A   Clear
2:10 AM 41.0 °F 39.2 °F 93% 30.17 in 2.0 mi Calm Calm - N/A   Clear
2:17 AM 41.0 °F 39.2 °F 93% 30.17 in 1.5 mi Calm Calm - N/A   Clear
2:30 AM 39.2 °F 39.2 °F 100% 30.17 in 2.0 mi Calm Calm - N/A   Partly Cloudy
2:34 AM 39.2 °F 39.2 °F 100% 30.17 in 1.0 mi Calm Calm - N/A   Mist
2:43 AM 41.0 °F 39.2 °F 93% 30.17 in 0.8 mi Calm Calm - N/A   Mist
2:53 AM 41.0 °F 39.0 °F 93% 30.16 in 0.8 mi Calm Calm - N/A   Mist
2:56 AM 41.0 °F 39.2 °F 93% 30.16 in 1.2 mi Calm Calm - N/A   Scattered Clouds
3:13 AM 39.2 °F 37.4 °F 93% 30.17 in 2.0 mi Calm Calm - N/A   Clear
3:40 AM 39.2 °F 37.4 °F 93% 30.18 in 1.8 mi Calm Calm - N/A   Clear
3:53 AM 39.9 °F 37.9 °F 93% 30.17 in 2.0 mi Calm Calm - N/A   Clear
4:53 AM 39.9 °F 37.9 °F 93% 30.18 in 2.0 mi Calm Calm - N/A   Clear
5:53 AM 39.0 °F 37.0 °F 93% 30.18 in 2.0 mi Calm Calm - N/A   Clear
6:53 AM 37.9 °F 37.0 °F 97% 30.18 in 2.0 mi Calm Calm - N/A   Clear
7:01 AM 37.4 °F 37.4 °F 100% 30.19 in 1.5 mi Calm Calm - N/A   Clear
7:20 AM 39.2 °F 37.4 °F 93% 30.19 in 2.5 mi Calm Calm - N/A   Clear
7:53 AM 42.1 °F 41.0 °F 96% 30.19 in 2.5 mi Calm Calm - N/A   Clear
8:02 AM 42.8 °F 42.8 °F 100% 30.20 in 4.0 mi Calm Calm - N/A   Clear
8:53 AM 48.9 °F 45.0 °F 86% 30.20 in 9.0 mi Calm Calm - N/A   Clear
9:53 AM 55.0 °F 48.0 °F 77% 30.19 in 10.0 mi Calm Calm - N/A   Clear
10:53 AM 62.1 °F 48.0 °F 60% 30.18 in 10.0 mi Calm Calm - N/A   Clear
11:53 AM 66.9 °F 48.9 °F 52% 30.16 in 10.0 mi West 5.8 mph - N/A   Clear
12:53 PM 70.0 °F 50.0 °F 49% 30.13 in 10.0 mi NW 4.6 mph - N/A   Clear
1:53 PM 73.0 °F 52.0 °F 48% 30.10 in 10.0 mi WNW 6.9 mph - N/A   Clear
2:53 PM 73.9 °F 52.0 °F 46% 30.08 in 10.0 mi WNW 10.4 mph - N/A   Clear
3:53 PM 73.0 °F 50.0 °F 44% 30.09 in 10.0 mi WNW 5.8 mph - N/A   Clear
4:53 PM 64.9 °F 52.0 °F 63% 30.09 in 10.0 mi Calm Calm - N/A   Clear
5:53 PM 55.9 °F 50.0 °F 80% 30.12 in 10.0 mi Calm Calm - N/A   Clear
6:53 PM 52.0 °F 48.0 °F 86% 30.14 in 10.0 mi Calm Calm - N/A   Clear
7:53 PM 50.0 °F 46.9 °F 89% 30.15 in 9.0 mi Calm Calm - N/A   Clear
8:53 PM 48.0 °F 45.0 °F 89% 30.17 in 5.0 mi Calm Calm - N/A   Clear
9:53 PM 46.9 °F 45.0 °F 93% 30.18 in 5.0 mi Calm Calm - N/A   Clear
10:53 PM 45.0 °F 43.0 °F 93% 30.18 in 3.0 mi Calm Calm - N/A   Clear
11:53 PM 43.0 °F 41.0 °F 93% 30.19 in 4.0 mi Calm Calm - N/A   Clear